Location: Wildlife_Club
(35.6000°N, 81.4330°W)
Time: 22:40:47
(UTC-04:00)

Courier 1B Rocket - Visible Passes

Search period start: 16 June 2019 00:00
Search period end: 26 June 2019 00:00
Orbit: 920 x 1202 km, 28.2° (Epoch: 16 June)

Date Brightness Start Highest point End Pass type
(mag) Time Alt. Az. Time Alt. Az. Time Alt. Az.
16 Jun 7.2 05:37:01 10° SSE 05:38:15 11° SSE 05:39:29 10° SE visible
18 Jun 6.8 05:25:16 10° SSW 05:29:18 17° SSE 05:33:11 10° ESE visible
19 Jun 7.0 04:26:09 10° S 04:28:28 12° SSE 04:30:45 10° SE visible
20 Jun 6.5 05:15:07 10° SSW 05:20:22 23° SSE 05:25:22 10° ESE visible
21 Jun 6.7 04:17:36 16° S 04:19:30 18° SSE 04:23:51 10° ESE visible
22 Jun 7.1 03:20:06 12° SE 03:20:06 12° SE 03:21:42 10° SE visible
22 Jun 6.1 05:06:27 14° SW 05:11:28 30° SSE 05:17:07 10° ESE visible
23 Jun 6.3 04:08:56 23° S 04:10:32 25° SSE 04:15:56 10° ESE visible
24 Jun 6.8 03:11:24 18° SE 03:11:24 18° SE 03:14:26 10° ESE visible
24 Jun 5.8 04:57:44 17° SW 05:02:34 37° SSE 05:08:40 10° ESE visible
25 Jun 6.0 04:00:11 30° S 04:01:37 32° SSE 04:07:37 10° ESE visible
